Terminal Aerodrome Forecast
Issued by NWS La Crosse, WI

Home | Current Version | Previous Version | Text Only | Print | Product List | Glossary On
Versions: 1 2 3 4 5 6 7 8 9 10 11 12 13 14 15 16
000
FTUS43 KARX 232325
TAFLSE
TAF
KLSE 232325Z 2400/2424 34005KT P6SM FEW050
     FM240700 VRB03KT P6SM VCSH SCT050 BKN080
     FM241500 12006KT P6SM SCT080=

USA.gov is the U.S. government's official web portal to all federal, state and local government web resources and services.